Regional Weather Roundup
Issued by NWS

Home | Current Version | Previous Version | Text Only | Print | Product List | Glossary Off
Versions: 1 2 3 4 5 6 7 8 9 10 11 12 13 14 15 16 17 18 19 20 21 22 23 24 25 26 27 28 29 30 31 32 33 34 35 36 37 38 39 40 41 42 43 44 45 46 47 48 49 50

624
ASUS43 KMPX 300901
RWRMN
WEATHER ROUNDUP FOR MINNESOTA
NATIONAL WEATHER SERVICE TWIN CITIES/CHANHASSEN MN
400 AM CDT SAT APR 30 2016


NOTE: "FAIR" INDICATES FEW OR NO CLOUDS BELOW 12,000 FEET WITH NO
SIGNIFICANT WEATHER AND/OR OBSTRUCTIONS TO VISIBILITY. N/A MEANS
CURRENT SKY AND/OR WEATHER CONDITIONS ARE NOT AVAILABLE.

MNZ060>063-068>070-301000-
   Twin Cities Metro

CITY           SKY/WX    TMP DP  RH WIND       PRES   REMARKS
TWIN CITIES    CLOUDY    44  32  62 NE7       30.11R
ST PAUL        PTCLDY    44  32  62 CALM      30.12S
CRYSTAL        CLOUDY    43  32  65 NE7       30.11R
BLAINE         CLOUDY    41  34  75 N6        30.12R
EDEN PRAIRIE   CLOUDY    46  32  58 N7        30.09R
SOUTH ST PAUL  CLOUDY    44  32  63 N3        30.10S
LAKE ELMO      FAIR      43  32  65 N3        30.12S
$$
MNZ001>005-007-008-013>017-022>024-027-028-301000-
   Northwest Minnesota

CITY           SKY/WX    TMP DP  RH WIND       PRES   REMARKS
BEMIDJI        CLEAR     37  32  83 CALM      30.23R
HALLOCK        CLEAR     41  30  65 E10       30.25R
ROSEAU         PTCLDY    36  30  80 E6        30.28R
WARROAD        PTCLDY    34  30  86 NE3       30.29R
THIEF RVR FALL CLEAR     41  30  65 E9        30.24R
CROOKSTON      CLEAR     41  32  70 E7        30.22R
FOSSTON        CLEAR     37  30  75 E7        30.22S
DETROIT LAKES  CLEAR     43  32  65 E9        30.20S
MOORHEAD       CLEAR     45  32  61 E9        30.18R
PARK RAPIDS    CLEAR     41  29  62 E6        30.21R
MAHNOMEN       FAIR      40  32  71 E6        30.19R
$$
MNZ006-009>011-018-025>026-301000-
   North Central Minnesota

CITY           SKY/WX    TMP DP  RH WIND       PRES   REMARKS
BAUDETTE       CLEAR     37  30  75 E3        30.27R
FLAG ISLAND    CLEAR     43  30  61 E5        30.28R
INTL FALLS     CLEAR     29  27  92 NE3       30.27R
WASKISH        CLEAR     36  32  87 E3        30.27R
BIG FORK       CLEAR     30  28  93 NE3       30.25R
LONGVILLE      CLEAR     34  28  80 NE3       30.22R
GRAND RAPIDS   CLEAR     37  28  70 CALM      30.24R
CRANE LAKE     CLEAR     25  25 100 CALM      30.29R
ORR            CLEAR     32  28  86 CALM      30.24S
COOK           CLEAR     28  27  93 CALM      30.26R
WALKER         FAIR      41  32  69 E5        30.23R
$$
MNZ012-019>021-037-301000-
   Northeast Minnesota

CITY           SKY/WX    TMP DP  RH WIND       PRES   REMARKS
DULUTH         CLEAR     36  28  73 E9        30.22R
ELY            CLEAR     34  28  80 CALM      30.25S
HIBBING        CLEAR     28  26  92 CALM      30.25R
EVELETH        CLEAR     34  30  86 NE3       30.26R
DULUTH HARBOR  CLEAR     37  34  87 NE12      30.25S
TWO HARBORS    CLEAR     39  32  75 NE6       30.23R
SILVER BAY     CLEAR     37  30  75 NE5       30.24R
GRAND MARAIS     N/A     42  29  59 NE6       30.27R
G MARAIS ARPRT CLEAR     34  25  69 N8        30.25R WCI  27
$$
MNZ029>031-032-039>041-046>048-054>057-064-301000-
   West Central Minnesota

CITY           SKY/WX    TMP DP  RH WIND       PRES   REMARKS
FERGUS FALLS   CLEAR     45  32  61 E7        30.14S
WHEATON        PTCLDY    43  36  75 E12       30.13F
MORRIS         CLEAR     45  34  65 E15       30.10F
ALEXANDRIA     CLEAR     40  31  70 E9        30.15F
ELBOW LAKE     FAIR      44  33  67 NE12      30.14F
WADENA         PTCLDY    37  28  70 NE6       30.17F
GLENWOOD       CLEAR     37  32  81 NE10      30.13S
APPLETON       CLEAR     43  34  70 E10       30.08F
BENSON         CLEAR     43  32  65 E12       30.10S
ORTONVILLE     CLEAR     43  34  70 E10       30.08F
MADISON        CLOUDY    41  37  87 E9        30.07F
WILLMAR        FAIR      45  36  70 NE10      30.11S
$$
MNZ033>034-036-042>043-049>051-058-059-301000-
   Central Minnesota

CITY           SKY/WX    TMP DP  RH WIND       PRES   REMARKS
ST CLOUD       CLEAR     40  30  67 NE9       30.13F
SAUK CENTRE    FAIR      40  32  71 NE10      30.13F
PAYNESVILLE    CLEAR     40  32  73 NE6       30.13S
AITKIN         CLEAR     37  28  70 NE3       30.18F
PINE RIVER     CLEAR     37  30  75 NE3       30.23F
BRAINERD       CLEAR     36  29  75 NE8       30.18F
STAPLES        CLEAR     37  28  70 NE5       30.17F
LONG PRAIRIE   FAIR      37  30  75 NE7       30.15F
LITTLE FALLS   CLEAR     37  30  75 CALM      30.16F
LITCHFIELD     CLEAR     43  36  75 NE7       30.11S
BUFFALO        CLOUDY    41  32  70 NE7       30.13S
MAPLE LAKE     CLEAR     41  34  75 NE6       30.13S
HUTCHINSON     CLEAR     43  37  77 NE10      30.10F
$$
MNZ037-044-045-052-053-301000-
   East Central Minnesota

CITY           SKY/WX    TMP DP  RH WIND       PRES   REMARKS
PRINCETON      CLEAR     39  30  70 N8        30.14S
MORA           CLEAR     36  30  80 NE6       30.17F
CAMBRIDGE      CLEAR     41  30  65 N6        30.12S
RUSH CITY      CLOUDY    36  30  80 NE7       30.14S
MOOSE LAKE     CLEAR     34  30  86 NE9       30.17F WCI  26
HINCKLEY       FAIR      36  32  87 N10       30.16F
CLOQUET        CLEAR     34  27  75 NE7       30.21S WCI  28
MCGREGOR       CLEAR     36  32  87 N6        30.21F
$$
MNZ071>073-080-081-089-090-097-098-301000-
   Southwest Minnesota

CITY           SKY/WX    TMP DP  RH WIND       PRES   REMARKS
MONTEVIDEO     CLEAR     37  36  93 E9        30.10S
GRANITE FALLS  PTCLDY    38  36  91 NE7       30.09S
CANBY          PTCLDY    36  36  98 CALM      30.07S
MARSHALL       CLOUDY    38  37  97 NE7       30.05F
REDWOOD FALLS  CLOUDY    43  38  82 NE5       30.06F
OLIVIA         CLEAR     39  34  81 NE6       30.07F
WINDOM         PTCLDY    41  39  93 NE8       30.02F
WORTHINGTON    CLOUDY    41  38  89 NE15      29.99F
JACKSON        CLOUDY    43  37  81 NE12      30.01S
TRACY          CLOUDY    39  38  99 NE7       30.04F FOG
SLAYTON        PTCLDY    41  39  92 NE12      30.02F
$$
MNZ065>067-074>077-082>085-091>093-301000-
   South Central Minnesota

CITY           SKY/WX    TMP DP  RH WIND       PRES   REMARKS
MANKATO        CLOUDY    45  37  76 NE12      30.06F
NEW ULM        CLEAR     43  39  87 NE7       30.06F
ST JAMES       PTCLDY    37  34  87 N6        30.05S
FAIRMONT       CLOUDY    43  32  65 NE12      30.01F
GLENCOE        CLOUDY    46  39  79 NE7       30.08F
FARIBAULT      CLOUDY    41  37  87 N5        30.08F
OWATONNA       CLOUDY    43  37  81 NE8       30.06F
WASECA         PTCLDY    41  37  87 NE8       30.07S
$$
MNZ078>079-086>088-094>096-301000-
   Southeast Minnesota

CITY           SKY/WX    TMP DP  RH WIND       PRES   REMARKS
ROCHESTER      CLOUDY    41  38  89 NE8       30.07R
RED WING       CLOUDY    43  36  75 S3        30.09S
STANTON        CLOUDY    42  38  87 CALM      30.08R
DODGE CENTER   CLOUDY    39  37  93 NE9       30.06S
WINONA         CLOUDY    39  37  93 CALM      30.09R
AUSTIN         CLOUDY    43  37  81 NE7       30.03S
PRESTON        CLOUDY    41  37  83 NE6       30.06R
$$
ABBREVIATIONS USED IN REMARKS
   TC - TEMPERATURES IN CELSIUS
  WCI - WIND CHILL INDEX
   HX - HEAT INDEX
  VSB - VISIBILITY
$$




USA.gov is the U.S. government's official web portal to all federal, state and local government web resources and services.